Pagina principale
METAR-TAF:

METAR-TAF

Aeroporti :

Emmen, Svizzera

latitudine: 47-05-32N, longitudine: 8-18-16E, altezza: 426 m

Osservazione

Il bollettino è stato emesso 34 minuti fa, alle 18:20 UTC
Vento 6 kt da ovest/sud-ovest, variando fra sud e ovest
Temperature 9°C
Umidità 57%
Pressione 1018 hPa
Visibilità 10 km o più
Poco nuvoloso ad un'altezza di 24000 ft

METAR: LSME 161820Z AUTO 24006KT 190V260 9999NDV FEW240 09/01 Q1018 RMK

Ora: 19:54 (18:54 UTC)


TAF: mancante

Osservazioni e previsioni meteorologiche di più di 4000 aeroporti (messaggi METAR e TAF).

Le stazioni disponibili sono rappresentate dai dischi gialli e rossi sulla carta.

Puntare il mouse per vedere il nome della stazione.

Clicca sopra per visualizzare le osservazioni e previsioni meteorologiche.

Per cambiare la mappa : fare clic sui pulsanti verdi con una croce nera per ingrandire, il pulsante verde con un trattino per diminuire, o sulla freccia verde per le mappe adiacenti.


METAR-TAF: